TimeEST,TemperatureF,Dew PointF,Humidity,Sea Level PressureIn,VisibilityMPH,Wind Direction,Wind SpeedMPH,Gust SpeedMPH,PrecipitationIn,Events,Conditions,WindDirDegrees,DateUTC
12:15 AM,39.2,30.4,71,30.27,10.0,East,5.8,-,N/A,,Clear,80,2012-11-15 05:15:00
12:35 AM,39.2,30.2,70,30.26,10.0,ENE,6.9,-,N/A,,Clear,70,2012-11-15 05:35:00
12:55 AM,38.7,30.2,72,30.25,10.0,East,8.1,-,N/A,,Clear,80,2012-11-15 05:55:00
1:15 AM,37.2,30.2,76,30.26,10.0,East,6.9,-,N/A,,Clear,80,2012-11-15 06:15:00
1:35 AM,37.4,29.8,74,30.25,10.0,ENE,5.8,-,N/A,,Clear,70,2012-11-15 06:35:00
1:55 AM,37.4,29.8,74,30.25,10.0,East,10.4,-,N/A,,Clear,80,2012-11-15 06:55:00
2:15 AM,36.7,29.8,76,30.26,10.0,East,10.4,-,N/A,,Clear,90,2012-11-15 07:15:00
2:35 AM,37.2,29.5,74,30.26,10.0,East,10.4,-,N/A,,Clear,80,2012-11-15 07:35:00
2:55 AM,37.4,29.3,73,30.26,10.0,East,9.2,-,N/A,,Clear,80,2012-11-15 07:55:00
3:15 AM,36.9,29.3,74,30.26,10.0,East,6.9,-,N/A,,Clear,80,2012-11-15 08:15:00
3:35 AM,36.7,29.7,76,30.26,10.0,East,6.9,-,N/A,,Clear,80,2012-11-15 08:35:00
3:55 AM,36.9,29.8,76,30.27,10.0,East,8.1,-,N/A,,Clear,100,2012-11-15 08:55:00
4:15 AM,36.9,29.7,75,30.26,10.0,East,6.9,-,N/A,,Clear,80,2012-11-15 09:15:00
4:35 AM,36.9,29.5,75,30.27,10.0,East,9.2,-,N/A,,Clear,80,2012-11-15 09:35:00
4:55 AM,36.9,29.7,75,30.27,10.0,East,8.1,-,N/A,,Clear,90,2012-11-15 09:55:00
5:15 AM,36.3,30.0,78,30.27,10.0,East,5.8,-,N/A,,Clear,80,2012-11-15 10:15:00
5:35 AM,36.0,29.7,78,30.27,10.0,East,4.6,-,N/A,,Clear,80,2012-11-15 10:35:00
6:15 AM,34.9,29.3,80,30.27,10.0,East,4.6,-,N/A,,Clear,90,2012-11-15 11:15:00
6:35 AM,35.4,30.0,81,30.27,10.0,East,5.8,-,N/A,,Mostly Cloudy,90,2012-11-15 11:35:00
6:55 AM,36.0,29.8,78,30.27,10.0,East,6.9,-,N/A,,Overcast,80,2012-11-15 11:55:00
7:15 AM,35.6,29.3,78,30.27,10.0,East,5.8,-,N/A,,Scattered Clouds,90,2012-11-15 12:15:00
7:35 AM,35.6,29.8,80,30.28,10.0,East,6.9,-,N/A,,Clear,100,2012-11-15 12:35:00
7:55 AM,35.6,30.4,81,30.28,10.0,East,5.8,-,N/A,,Clear,100,2012-11-15 12:55:00
8:15 AM,36.0,30.7,81,30.30,10.0,East,4.6,-,N/A,,Clear,90,2012-11-15 13:15:00
8:35 AM,36.7,30.6,78,30.30,10.0,East,10.4,-,N/A,,Clear,100,2012-11-15 13:35:00
8:55 AM,36.9,30.7,79,30.30,10.0,East,9.2,-,N/A,,Clear,100,2012-11-15 13:55:00
9:15 AM,37.6,31.3,78,30.30,10.0,ESE,6.9,-,N/A,,Clear,110,2012-11-15 14:15:00
9:55 AM,38.8,31.3,74,30.31,10.0,East,6.9,-,N/A,,Clear,90,2012-11-15 14:55:00
10:15 AM,39.7,31.5,72,30.31,10.0,East,4.6,-,N/A,,Clear,100,2012-11-15 15:15:00
10:35 AM,41.2,32.0,70,30.31,10.0,East,3.5,-,N/A,,Clear,80,2012-11-15 15:35:00
11:15 AM,43.5,32.7,66,30.30,10.0,Calm,Calm,-,N/A,,Clear,0,2012-11-15 16:15:00
11:35 AM,46.2,33.8,62,30.29,10.0,Calm,Calm,-,N/A,,Clear,0,2012-11-15 16:35:00
11:55 AM,46.8,33.8,61,30.29,10.0,Calm,Calm,-,N/A,,Clear,0,2012-11-15 16:55:00
12:15 PM,46.4,32.9,59,30.28,10.0,Calm,Calm,-,N/A,,Clear,0,2012-11-15 17:15:00
12:35 PM,46.9,34.0,61,30.28,10.0,South,3.5,-,N/A,,Clear,190,2012-11-15 17:35:00
12:55 PM,47.8,35.1,61,30.27,10.0,SSW,3.5,-,N/A,,Clear,210,2012-11-15 17:55:00
1:15 PM,49.5,35.1,58,30.26,10.0,Calm,Calm,-,N/A,,Clear,0,2012-11-15 18:15:00
1:35 PM,50.0,34.7,56,30.25,10.0,Calm,Calm,-,N/A,,Clear,0,2012-11-15 18:35:00
1:55 PM,50.5,35.4,56,30.24,10.0,Calm,Calm,-,N/A,,Clear,0,2012-11-15 18:55:00
2:15 PM,51.1,34.9,54,30.24,10.0,Calm,Calm,-,N/A,,Clear,0,2012-11-15 19:15:00
2:35 PM,51.4,35.1,54,30.23,10.0,SSW,3.5,-,N/A,,Clear,200,2012-11-15 19:35:00
2:55 PM,52.2,35.6,53,30.23,10.0,South,3.5,-,N/A,,Clear,190,2012-11-15 19:55:00
3:15 PM,53.1,34.9,50,30.23,10.0,Calm,Calm,-,N/A,,Clear,0,2012-11-15 20:15:00
3:35 PM,53.4,35.2,50,30.22,10.0,West,3.5,-,N/A,,Clear,270,2012-11-15 20:35:00
3:55 PM,53.6,35.6,51,30.22,10.0,SSW,4.6,-,N/A,,Clear,200,2012-11-15 20:55:00
4:15 PM,52.7,34.9,51,30.23,10.0,South,3.5,-,N/A,,Clear,180,2012-11-15 21:15:00
4:35 PM,52.2,34.7,51,30.22,10.0,SW,3.5,-,N/A,,Clear,220,2012-11-15 21:35:00
4:55 PM,50.4,35.2,56,30.22,10.0,South,3.5,-,N/A,,Clear,170,2012-11-15 21:55:00
5:15 PM,49.6,34.7,56,30.22,10.0,Calm,Calm,-,N/A,,Clear,0,2012-11-15 22:15:00
5:35 PM,48.0,34.7,60,30.23,10.0,Calm,Calm,-,N/A,,Clear,0,2012-11-15 22:35:00
5:55 PM,45.7,34.7,65,30.23,10.0,Calm,Calm,-,N/A,,Clear,0,2012-11-15 22:55:00
6:15 PM,42.8,34.7,73,30.24,10.0,Calm,Calm,-,N/A,,Clear,0,2012-11-15 23:15:00
6:35 PM,41.5,34.2,75,30.25,10.0,Calm,Calm,-,N/A,,Clear,0,2012-11-15 23:35:00
6:55 PM,40.6,34.0,77,30.25,10.0,Calm,Calm,-,N/A,,Clear,0,2012-11-15 23:55:00
7:15 PM,41.4,33.8,74,30.25,10.0,Calm,Calm,-,N/A,,Clear,0,2012-11-16 00:15:00
7:35 PM,40.8,33.8,76,30.25,10.0,Calm,Calm,-,N/A,,Clear,0,2012-11-16 00:35:00
7:55 PM,39.0,33.3,80,30.25,10.0,Calm,Calm,-,N/A,,Clear,0,2012-11-16 00:55:00
8:15 PM,38.5,33.1,81,30.25,10.0,Calm,Calm,-,N/A,,Clear,0,2012-11-16 01:15:00
8:35 PM,37.9,33.1,83,30.26,10.0,Calm,Calm,-,N/A,,Clear,0,2012-11-16 01:35:00
9:15 PM,37.9,32.7,81,30.26,10.0,Calm,Calm,-,N/A,,Clear,0,2012-11-16 02:15:00
9:35 PM,37.0,32.4,83,30.26,10.0,Calm,Calm,-,N/A,,Clear,0,2012-11-16 02:35:00
9:55 PM,36.5,32.2,84,30.26,10.0,Calm,Calm,-,N/A,,Clear,0,2012-11-16 02:55:00
10:15 PM,37.4,32.0,81,30.26,10.0,Calm,Calm,-,N/A,,Clear,0,2012-11-16 03:15:00
10:35 PM,36.0,31.8,85,30.26,10.0,Calm,Calm,-,N/A,,Clear,0,2012-11-16 03:35:00
10:55 PM,36.3,32.0,84,30.26,10.0,Calm,Calm,-,N/A,,Clear,0,2012-11-16 03:55:00
11:15 PM,34.7,31.3,87,30.26,10.0,Calm,Calm,-,N/A,,Clear,0,2012-11-16 04:15:00
11:35 PM,35.8,31.3,84,30.26,10.0,Calm,Calm,-,N/A,,Clear,0,2012-11-16 04:35:00
11:55 PM,35.4,31.1,84,30.26,10.0,East,5.8,-,N/A,,Clear,90,2012-11-16 04:55:00